Regional Weather Roundup
Issued by NWS

Home | Current Version | Previous Version | Graphics & Text | Print | Product List | Glossary On
Versions: 1 2 3 4 5 6 7 8 9 10 11 12 13 14 15 16 17 18 19 20 21 22 23 24 25 26 27 28 29 30 31 32 33 34 35 36 37 38 39 40 41 42 43 44 45 46 47 48 49 50
000
ASUS45 KPSR 211100
RWRAZ

PRELIMINARY ARIZONA REGIONAL HOURLY WEATHER ROUNDUP
NATIONAL WEATHER SERVICE PHOENIX AZ
400 AM MST TUE OCT 21 2014

NOTE: FAIR INDICATES FEW OR NO CLOUDS BELOW 12,000 FEET WITH NO
SIGNIFICANT WEATHER AND/OR OBSTRUCTIONS TO VISIBILITY.

AZZ001>003-036-211200-
NORTHWEST ARIZONA

CITY           SKY/WX    TMP DP  RH WIND       PRES   REMARKS
KINGMAN        PTCLDY    59  42  53 SE3       29.96S
$$

AZZ004>008-015-016-018-211200-
NORTH CENTRAL ARIZONA

CITY           SKY/WX    TMP DP  RH WIND       PRES   REMARKS
GRAND CANYON   CLEAR     32  28  85 CALM      30.14F
PRESCOTT       PTCLDY    48  39  71 S5        30.06F
FLAGSTAFF      CLEAR     35  32  88 CALM      30.16F
PAYSON         CLEAR     57  41  54 E5        30.10S
$$

AZZ009>014-017-211200-
NORTHEAST ARIZONA

CITY           SKY/WX    TMP DP  RH WIND       PRES   REMARKS
WINSLOW        NOT AVBL
SAINT JOHNS    CLEAR     45  41  86 CALM      30.11S
$$

AZZ023-211200-
GREATER PHOENIX AREA

CITY           SKY/WX    TMP DP  RH WIND       PRES   REMARKS
PHOENIX        CLEAR     71  52  50 E7        29.83F
LUKE AFB       CLEAR     65  51  61 N7        29.84F
DEER VALLEY    CLEAR     69  48  47 NE7       29.86S
SCOTTSDALE     CLEAR     71  50  47 E5        29.87F
$$

AZZ027-028-211200-
SOUTHWEST MARICOPA COUNTY AND PINAL COUNTY

CITY           SKY/WX    TMP DP  RH WIND       PRES   REMARKS
CASA GRANDE    CLEAR     66  48  52 CALM      29.87S
$$

AZZ503-504-507>509-211200-
SOUTHEAST ARIZONA

CITY           SKY/WX    TMP DP  RH WIND       PRES   REMARKS
TUCSON         CLEAR     67  48  50 SE9       29.95R
DAVIS-MONTHAN  CLEAR     64  49  58 SE13      29.93S
NOGALES        CLEAR     50  32  50 MISG      29.99S
SIERRA VISTA   CLEAR     52  45  76 S5        30.04S
SAFFORD        CLEAR     57  50  77 E7        30.00F
$$

AZZ020-021-025-026-031-211200-
SOUTHWEST ARIZONA

CITY           SKY/WX    TMP DP  RH WIND       PRES   REMARKS
YUMA           NOT AVBL
$$

CAZ031-033-041-043-047-048-061-211200-
SOUTHERN CALIFORNIA

CITY           SKY/WX    TMP DP  RH WIND       PRES   REMARKS
DOWNTOWN L.A.  CLOUDY    67  60  78 CALM      29.88S
L.A. AIRPORT   MOCLDY    66  62  87 SE3       29.89F
SAN DIEGO      CLOUDY    69  60  73 E3        29.91S
BURBANK        CLOUDY    62  59  90 E3        29.90S FOG
ONTARIO        PTCLDY    61  59  93 CALM      29.90F FOG
RIVERSIDE      CLEAR     59  57  93 CALM      29.89F
PALM SPRINGS   CLEAR     70  54  56 CALM      29.81S
EL CENTRO NAS  CLEAR     71  46  40 W5        29.77R
IMPERIAL       CLEAR     70  50  49 W5        29.77R
BLYTHE         CLEAR     69  47  45 NW7       29.79S
$$

NVZ020-UTZ003-211200-
SOUTHERN NEVADA-UTAH

CITY           SKY/WX    TMP DP  RH WIND       PRES   REMARKS
LAS VEGAS      NOT AVBL
SALT LAKE CITY MOCLDY    64  40  41 S17       29.87F
$$

NMZ009-TXZ055-211200-
NEW MEXICO-WEST TEXAS

CITY           SKY/WX    TMP DP  RH WIND       PRES   REMARKS
ALBUQUERQUE    MOCLDY    52  47  83 N5        30.15S
EL PASO        MOCLDY    59  54  83 NE6       30.06S
$$


........................KEY........................
SKY/WX - SKY CONDITION/WEATHER
TMP    - TEMPERATURE IN FAHRENHEIT
DP     - DEW POINT IN FAHRENHEIT
RH     - RELATIVE HUMIDITY IN PERCENT
WIND   - DIRECTION AND SPEED IN MILES PER HOUR (MPH)
VRB    - VARIABLE WIND DIRECTION
PRES   - MEAN SEA LEVEL PRESSURE IN INCHES OF MERCURY
         F - FALLING PRESSURE   R - RISING PRESSURE
         S - STEADY PRESSURE
VSB    - VISIBILITY IN MILES
HX     - HEAT INDEX IN FAHRENHEIT
WCI    - WIND CHILL INDEX IN FAHRENHEIT
TC     - TEMPERATURE IN CELSIUS WHICH IS ALSO KNOWN AS
         TEMPERATURE IN CENTIGRADE
AFB    - AIR FORCE BASE
         LUKE AFB IS LUKE AIR FORCE BASE
         DAVIS-MONTHAN IS DAVIS-MONTHAN AIR FORCE BASE
NAS    - NAVAL AIR STATION
         EL CENTRO NAS IS EL CENTRO NAVAL AIR STATION
N/A    - NOT AVAILABLE


USA.gov is the U.S. government's official web portal to all federal, state and local government web resources and services.